Wetterdaten: Mittwoch, 06.04.2016
Datum Zeit Auen-Temp. Temp gefhlt Luftfeuchte Luftdruck Regen Wind Richtung Richtung Sonnenschein Taupunkt Windben
06.04.2016 00:00 10,7 C 10,6 C 74 % 1012,8 hPa 0,0 mm 1,8 km/h (1 Bft) S 180 0 min 6,3 C 0,0 km/h (0 Bft)
06.04.2016 00:05 10,7 C 10,6 C 74 % 1012,8 hPa 0,0 mm 1,8 km/h (1 Bft) W-NW 292 0 min 6,3 C 0,0 km/h (0 Bft)
06.04.2016 00:10 10,7 C 10,6 C 74 % 1012,8 hPa 0,0 mm 0,9 km/h (0 Bft) NW 315 0 min 6,3 C 0,0 km/h (0 Bft)
06.04.2016 00:15 10,6 C 10,5 C 74 % 1012,8 hPa 0,0 mm 0,3 km/h (0 Bft) W-SW 247 0 min 6,2 C 0,0 km/h (0 Bft)
06.04.2016 00:20 10,6 C 10,5 C 74 % 1012,8 hPa 0,0 mm 1,5 km/h (1 Bft) W-SW 247 0 min 6,2 C 9,2 km/h (2 Bft)
06.04.2016 00:25 10,6 C 10,5 C 74 % 1012,8 hPa 0,0 mm 2,4 km/h (1 Bft) W-SW 247 0 min 6,2 C 13,7 km/h (3 Bft)
06.04.2016 00:30 10,6 C 10,5 C 74 % 1012,9 hPa 0,0 mm 3,0 km/h (1 Bft) W 270 0 min 6,2 C 3,0 km/h (1 Bft)
06.04.2016 00:33 10,6 C 10,5 C 74 % 1012,9 hPa 0,0 mm 4,8 km/h (1 Bft) W-NW 292 0 min 6,2 C 13,7 km/h (3 Bft)
06.04.2016 00:35 10,6 C 10,5 C 74 % 1012,9 hPa 0,0 mm 4,8 km/h (1 Bft) W-NW 292 0 min 6,2 C 13,7 km/h (3 Bft)
06.04.2016 00:40 10,7 C 10,6 C 74 % 1012,9 hPa 0,0 mm 6,3 km/h (2 Bft) W 270 0 min 6,3 C 8,0 km/h (2 Bft)
06.04.2016 00:45 10,6 C 10,5 C 74 % 1012,9 hPa 0,0 mm 8,3 km/h (2 Bft) W-NW 292 0 min 6,2 C 16,4 km/h (3 Bft)
06.04.2016 00:50 10,6 C 10,5 C 74 % 1013,1 hPa 0,0 mm 8,3 km/h (2 Bft) NW 315 0 min 6,2 C 15,5 km/h (3 Bft)
06.04.2016 00:55 10,5 C 10,4 C 74 % 1013,1 hPa 0,0 mm 8,6 km/h (2 Bft) W-SW 247 0 min 6,1 C 18,8 km/h (3 Bft)
06.04.2016 01:00 10,5 C 10,4 C 74 % 1013,1 hPa 0,0 mm 8,9 km/h (2 Bft) W 270 0 min 6,1 C 12,8 km/h (3 Bft)
06.04.2016 01:05 10,4 C 10,4 C 73 % 1013,1 hPa 0,0 mm 7,5 km/h (2 Bft) W-SW 247 0 min 5,8 C 3,3 km/h (1 Bft)
06.04.2016 01:10 10,4 C 10,4 C 73 % 1013,1 hPa 0,0 mm 6,6 km/h (2 Bft) NW 315 0 min 5,8 C 14,0 km/h (3 Bft)
06.04.2016 01:15 10,3 C 10,3 C 74 % 1013,1 hPa 0,0 mm 7,2 km/h (2 Bft) W-SW 247 0 min 5,9 C 12,5 km/h (3 Bft)
06.04.2016 01:20 10,3 C 10,3 C 74 % 1013,1 hPa 0,0 mm 7,7 km/h (2 Bft) W 270 0 min 5,9 C 3,9 km/h (1 Bft)
06.04.2016 01:25 10,3 C 10,2 C 74 % 1013,1 hPa 0,0 mm 6,3 km/h (2 Bft) W 270 0 min 5,9 C 15,8 km/h (3 Bft)
06.04.2016 01:30 10,1 C 10,0 C 75 % 1013,1 hPa 0,0 mm 8,0 km/h (2 Bft) W-SW 247 0 min 5,9 C 14,6 km/h (3 Bft)
06.04.2016 01:35 10,0 C 9,8 C 76 % 1013,1 hPa 0,0 mm 8,9 km/h (2 Bft) W 270 0 min 6,0 C 19,4 km/h (3 Bft)
06.04.2016 01:40 9,9 C 9,8 C 76 % 1013,1 hPa 0,0 mm 7,7 km/h (2 Bft) W 270 0 min 5,9 C 7,7 km/h (2 Bft)
06.04.2016 01:45 9,8 C 9,7 C 77 % 1013,1 hPa 0,0 mm 6,6 km/h (2 Bft) W 270 0 min 6,0 C 5,7 km/h (1 Bft)
06.04.2016 01:50 9,7 C 9,6 C 78 % 1013,2 hPa 0,0 mm 6,6 km/h (2 Bft) W 270 0 min 6,1 C 11,3 km/h (2 Bft)
06.04.2016 01:55 9,6 C 9,4 C 78 % 1013,2 hPa 0,0 mm 7,2 km/h (2 Bft) W 270 0 min 6,0 C 10,4 km/h (2 Bft)
06.04.2016 02:00 9,5 C 9,3 C 79 % 1013,2 hPa 0,0 mm 7,5 km/h (2 Bft) W-SW 247 0 min 6,0 C 4,5 km/h (1 Bft)
06.04.2016 02:05 9,4 C 9,2 C 79 % 1013,2 hPa 0,0 mm 7,5 km/h (2 Bft) NW 315 0 min 5,9 C 8,0 km/h (2 Bft)
06.04.2016 02:10 9,3 C 9,1 C 79 % 1013,4 hPa 0,0 mm 6,6 km/h (2 Bft) W-NW 292 0 min 5,8 C 8,6 km/h (2 Bft)
06.04.2016 02:15 9,2 C 9,0 C 79 % 1013,4 hPa 0,0 mm 5,4 km/h (1 Bft) W 270 0 min 5,8 C 4,2 km/h (1 Bft)
06.04.2016 02:20 9,1 C 8,9 C 81 % 1013,4 hPa 0,0 mm 6,9 km/h (2 Bft) W 270 0 min 6,0 C 9,8 km/h (2 Bft)
06.04.2016 02:25 8,9 C 8,7 C 82 % 1013,4 hPa 0,0 mm 8,6 km/h (2 Bft) W-SW 247 0 min 6,0 C 11,3 km/h (2 Bft)
06.04.2016 02:30 8,9 C 8,6 C 82 % 1013,5 hPa 0,0 mm 8,3 km/h (2 Bft) W 270 0 min 6,0 C 6,6 km/h (2 Bft)
06.04.2016 02:35 8,7 C 8,5 C 83 % 1013,5 hPa 0,0 mm 7,7 km/h (2 Bft) W 270 0 min 6,0 C 8,3 km/h (2 Bft)
06.04.2016 02:40 8,6 C 8,4 C 83 % 1013,5 hPa 0,0 mm 7,7 km/h (2 Bft) W-NW 292 0 min 5,9 C 8,9 km/h (2 Bft)
06.04.2016 02:45 8,4 C 8,1 C 83 % 1013,5 hPa 0,0 mm 7,5 km/h (2 Bft) W 270 0 min 5,7 C 23,8 km/h (4 Bft)
06.04.2016 02:50 8,3 C 8,0 C 84 % 1013,6 hPa 0,0 mm 8,6 km/h (2 Bft) W-NW 292 0 min 5,8 C 17,0 km/h (3 Bft)
06.04.2016 02:55 8,2 C 7,8 C 84 % 1013,6 hPa 0,0 mm 9,5 km/h (2 Bft) SW 225 0 min 5,7 C 11,3 km/h (2 Bft)
06.04.2016 03:00 8,2 C 7,8 C 84 % 1013,6 hPa 0,0 mm 8,9 km/h (2 Bft) W-SW 247 0 min 5,7 C 6,9 km/h (2 Bft)
06.04.2016 03:05 8,1 C 7,8 C 84 % 1013,6 hPa 0,0 mm 7,5 km/h (2 Bft) SW 225 0 min 5,6 C 10,1 km/h (2 Bft)
06.04.2016 03:10 8,1 C 7,9 C 84 % 1013,6 hPa 0,0 mm 5,7 km/h (1 Bft) W-NW 292 0 min 5,6 C 7,2 km/h (2 Bft)
06.04.2016 03:15 8,0 C 7,9 C 85 % 1013,6 hPa 0,0 mm 6,6 km/h (2 Bft) N-NW 337 0 min 5,6 C 5,7 km/h (1 Bft)
06.04.2016 03:20 8,0 C 7,8 C 85 % 1013,6 hPa 0,0 mm 6,9 km/h (2 Bft) W-SW 247 0 min 5,6 C 5,1 km/h (1 Bft)
06.04.2016 03:25 8,0 C 7,9 C 85 % 1013,6 hPa 0,0 mm 5,1 km/h (1 Bft) W-NW 292 0 min 5,6 C 3,3 km/h (1 Bft)
06.04.2016 03:30 8,0 C 7,9 C 85 % 1013,6 hPa 0,0 mm 4,5 km/h (1 Bft) W-SW 247 0 min 5,6 C 9,8 km/h (2 Bft)
06.04.2016 03:35 8,0 C 7,9 C 86 % 1013,6 hPa 0,0 mm 6,0 km/h (2 Bft) W-SW 247 0 min 5,8 C 7,2 km/h (2 Bft)
06.04.2016 03:36 8,0 C 7,9 C 86 % 1013,6 hPa 0,0 mm 6,0 km/h (2 Bft) W-SW 247 0 min 5,8 C 7,2 km/h (2 Bft)
06.04.2016 03:40 7,9 C 7,7 C 86 % 1013,6 hPa 0,0 mm 7,2 km/h (2 Bft) W-NW 292 0 min 5,7 C 10,4 km/h (2 Bft)
06.04.2016 03:45 7,7 C 7,4 C 86 % 1013,6 hPa 0,0 mm 9,2 km/h (2 Bft) W 270 0 min 5,5 C 15,8 km/h (3 Bft)
06.04.2016 03:50 7,4 C 7,0 C 86 % 1013,7 hPa 0,0 mm 11,3 km/h (2 Bft) N-NW 337 0 min 5,2 C 8,6 km/h (2 Bft)
06.04.2016 03:55 7,0 C 6,4 C 86 % 1013,7 hPa 0,0 mm 14,0 km/h (3 Bft) W-NW 292 0 min 4,8 C 9,2 km/h (2 Bft)
06.04.2016 04:00 7,0 C 6,5 C 86 % 1013,7 hPa 0,0 mm 11,0 km/h (2 Bft) NW 315 0 min 4,8 C 3,0 km/h (1 Bft)
06.04.2016 04:05 6,9 C 6,7 C 86 % 1013,7 hPa 0,0 mm 5,1 km/h (1 Bft) NW 315 0 min 4,7 C 4,5 km/h (1 Bft)
06.04.2016 04:10 6,9 C 6,7 C 86 % 1013,6 hPa 0,0 mm 4,5 km/h (1 Bft) W-SW 247 0 min 4,7 C 5,7 km/h (1 Bft)
06.04.2016 04:15 6,8 C 6,6 C 86 % 1013,6 hPa 0,0 mm 5,7 km/h (1 Bft) NW 315 0 min 4,6 C 6,3 km/h (2 Bft)
06.04.2016 04:20 6,8 C 6,6 C 86 % 1013,6 hPa 0,0 mm 6,0 km/h (2 Bft) NW 315 0 min 4,6 C 6,3 km/h (2 Bft)
06.04.2016 04:25 6,7 C 6,5 C 86 % 1013,6 hPa 0,0 mm 4,2 km/h (1 Bft) W 270 0 min 4,5 C 0,0 km/h (0 Bft)
06.04.2016 04:30 6,7 C 6,5 C 86 % 1013,8 hPa 0,0 mm 3,0 km/h (1 Bft) W-SW 247 0 min 4,5 C 5,4 km/h (1 Bft)
06.04.2016 04:35 6,7 C 6,5 C 86 % 1013,8 hPa 0,0 mm 3,3 km/h (1 Bft) SW 225 0 min 4,5 C 6,6 km/h (2 Bft)
06.04.2016 04:40 6,6 C 6,4 C 86 % 1013,8 hPa 0,7 mm 3,9 km/h (1 Bft) N 360 0 min 4,4 C 6,0 km/h (2 Bft)
06.04.2016 04:45 6,6 C 6,4 C 86 % 1013,8 hPa 0,0 mm 3,0 km/h (1 Bft) W 270 0 min 4,4 C 5,4 km/h (1 Bft)
06.04.2016 04:50 6,6 C 6,4 C 86 % 1013,8 hPa 0,0 mm 4,5 km/h (1 Bft) S 180 0 min 4,4 C 11,9 km/h (2 Bft)
06.04.2016 04:55 6,5 C 6,3 C 86 % 1013,8 hPa 0,0 mm 6,6 km/h (2 Bft) W-SW 247 0 min 4,3 C 8,6 km/h (2 Bft)
06.04.2016 05:00 6,5 C 6,3 C 86 % 1013,8 hPa 0,0 mm 6,9 km/h (2 Bft) W-SW 247 0 min 4,3 C 8,3 km/h (2 Bft)
06.04.2016 05:05 6,5 C 6,3 C 86 % 1013,8 hPa 0,0 mm 6,9 km/h (2 Bft) SO 135 0 min 4,3 C 8,3 km/h (2 Bft)
06.04.2016 05:10 6,5 C 6,3 C 86 % 1013,7 hPa 0,0 mm 6,6 km/h (2 Bft) W-SW 247 0 min 4,3 C 6,0 km/h (2 Bft)
06.04.2016 05:15 6,5 C 6,3 C 86 % 1013,7 hPa 0,0 mm 6,0 km/h (2 Bft) W 270 0 min 4,3 C 5,7 km/h (1 Bft)
06.04.2016 05:20 6,5 C 6,3 C 86 % 1013,7 hPa 0,0 mm 5,4 km/h (1 Bft) SW 225 0 min 4,3 C 7,5 km/h (2 Bft)
06.04.2016 05:25 6,4 C 6,3 C 86 % 1013,7 hPa 0,0 mm 4,2 km/h (1 Bft) W-SW 247 0 min 4,2 C 5,4 km/h (1 Bft)
06.04.2016 05:30 6,4 C 6,3 C 86 % 1013,8 hPa 0,0 mm 3,9 km/h (1 Bft) SW 225 0 min 4,2 C 7,5 km/h (2 Bft)
06.04.2016 05:35 6,4 C 6,3 C 86 % 1013,8 hPa 0,0 mm 3,3 km/h (1 Bft) W-SW 247 0 min 4,2 C 3,3 km/h (1 Bft)
06.04.2016 05:40 6,4 C 6,3 C 86 % 1013,8 hPa 0,0 mm 3,0 km/h (1 Bft) S-SO 157 0 min 4,2 C 6,0 km/h (2 Bft)
06.04.2016 05:45 6,5 C 6,3 C 86 % 1013,8 hPa 0,0 mm 4,5 km/h (1 Bft) SW 225 0 min 4,3 C 6,6 km/h (2 Bft)
06.04.2016 05:50 6,5 C 6,3 C 86 % 1013,7 hPa 0,0 mm 5,4 km/h (1 Bft) S-SO 157 0 min 4,3 C 19,7 km/h (3 Bft)
06.04.2016 05:55 6,5 C 6,2 C 87 % 1013,7 hPa 0,0 mm 7,5 km/h (2 Bft) S 180 0 min 4,5 C 10,7 km/h (2 Bft)
06.04.2016 06:00 6,5 C 6,1 C 87 % 1013,7 hPa 0,0 mm 8,3 km/h (2 Bft) W-NW 292 0 min 4,5 C 5,1 km/h (1 Bft)
06.04.2016 06:05 6,5 C 6,3 C 87 % 1013,7 hPa 0,0 mm 6,3 km/h (2 Bft) S 180 0 min 4,5 C 5,4 km/h (1 Bft)
06.04.2016 06:10 6,5 C 6,3 C 86 % 1013,7 hPa 0,0 mm 4,2 km/h (1 Bft) SW 225 0 min 4,3 C 6,6 km/h (2 Bft)
06.04.2016 06:15 6,5 C 6,3 C 86 % 1013,7 hPa 0,0 mm 3,9 km/h (1 Bft) SW 225 0 min 4,3 C 8,9 km/h (2 Bft)
06.04.2016 06:20 6,5 C 6,3 C 86 % 1013,7 hPa 0,0 mm 4,8 km/h (1 Bft) W-SW 247 0 min 4,3 C 4,2 km/h (1 Bft)
06.04.2016 06:25 6,5 C 6,3 C 86 % 1013,7 hPa 0,0 mm 3,3 km/h (1 Bft) SO 135 0 min 4,3 C 0,0 km/h (0 Bft)
06.04.2016 06:30 6,4 C 6,2 C 86 % 1013,8 hPa 0,0 mm 2,4 km/h (1 Bft) W-SW 247 0 min 4,2 C 3,9 km/h (1 Bft)
06.04.2016 06:35 6,4 C 6,2 C 86 % 1013,8 hPa 0,0 mm 3,0 km/h (1 Bft) W-SW 247 0 min 4,2 C 7,7 km/h (2 Bft)
06.04.2016 06:37 6,4 C 6,2 C 86 % 1013,8 hPa 0,0 mm 3,0 km/h (1 Bft) W-SW 247 0 min 4,2 C 7,7 km/h (2 Bft)
06.04.2016 06:40 6,4 C 6,2 C 86 % 1013,8 hPa 0,0 mm 3,9 km/h (1 Bft) SW 225 0 min 4,2 C 4,8 km/h (1 Bft)
06.04.2016 06:45 6,4 C 6,2 C 86 % 1013,8 hPa 0,0 mm 4,2 km/h (1 Bft) SW 225 0 min 4,2 C 3,3 km/h (1 Bft)
06.04.2016 06:50 6,4 C 6,2 C 86 % 1014,1 hPa 0,0 mm 3,9 km/h (1 Bft) SW 225 0 min 4,2 C 3,9 km/h (1 Bft)
06.04.2016 06:55 6,4 C 6,2 C 86 % 1014,1 hPa 0,0 mm 3,3 km/h (1 Bft) W-SW 247 0 min 4,2 C 14,0 km/h (3 Bft)
06.04.2016 07:00 6,4 C 6,2 C 86 % 1014,1 hPa 0,0 mm 2,7 km/h (1 Bft) W 270 0 min 4,2 C 0,0 km/h (0 Bft)
06.04.2016 07:05 6,3 C 6,1 C 86 % 1014,1 hPa 0,0 mm 3,0 km/h (1 Bft) SW 225 0 min 4,1 C 4,8 km/h (1 Bft)
06.04.2016 07:10 6,3 C 6,1 C 86 % 1014,4 hPa 0,0 mm 2,1 km/h (1 Bft) SW 225 0 min 4,1 C 6,6 km/h (2 Bft)
06.04.2016 07:15 6,3 C 6,1 C 86 % 1014,4 hPa 0,0 mm 3,9 km/h (1 Bft) NW 315 0 min 4,1 C 3,6 km/h (1 Bft)
06.04.2016 07:20 6,3 C 6,1 C 86 % 1014,4 hPa 0,0 mm 4,8 km/h (1 Bft) SW 225 0 min 4,1 C 0,0 km/h (0 Bft)
06.04.2016 07:25 6,3 C 6,1 C 86 % 1014,4 hPa 0,7 mm 4,8 km/h (1 Bft) W 270 0 min 4,1 C 5,1 km/h (1 Bft)
06.04.2016 07:30 6,3 C 6,1 C 86 % 1014,4 hPa 0,0 mm 5,1 km/h (1 Bft) W 270 0 min 4,1 C 7,5 km/h (2 Bft)
06.04.2016 07:35 6,3 C 6,1 C 86 % 1014,4 hPa 0,0 mm 5,1 km/h (1 Bft) W 270 0 min 4,1 C 7,2 km/h (2 Bft)
06.04.2016 07:40 6,3 C 6,1 C 86 % 1014,4 hPa 0,0 mm 5,1 km/h (1 Bft) W 270 0 min 4,1 C 11,9 km/h (2 Bft)
06.04.2016 07:45 6,4 C 6,2 C 86 % 1014,4 hPa 0,0 mm 4,5 km/h (1 Bft) W 270 0 min 4,2 C 15,2 km/h (3 Bft)
06.04.2016 07:50 6,4 C 6,2 C 86 % 1014,6 hPa 0,7 mm 3,6 km/h (1 Bft) W-NW 292 0 min 4,2 C 3,3 km/h (1 Bft)
06.04.2016 07:55 6,4 C 6,3 C 86 % 1014,6 hPa 0,0 mm 2,1 km/h (1 Bft) S 180 0 min 4,2 C 6,9 km/h (2 Bft)
06.04.2016 08:00 6,4 C 6,3 C 86 % 1014,6 hPa 0,0 mm 1,5 km/h (1 Bft) NW 315 0 min 4,2 C 0,0 km/h (0 Bft)
06.04.2016 08:05 6,4 C 6,3 C 86 % 1014,6 hPa 0,0 mm 2,1 km/h (1 Bft) W-SW 247 0 min 4,2 C 3,3 km/h (1 Bft)
06.04.2016 08:10 6,4 C 6,4 C 82 % 1014,6 hPa 0,0 mm 2,4 km/h (1 Bft) S 180 0 min 3,6 C 6,0 km/h (2 Bft)
06.04.2016 08:15 6,5 C 6,4 C 86 % 1014,6 hPa 0,0 mm 2,1 km/h (1 Bft) W-SW 247 0 min 4,3 C 5,1 km/h (1 Bft)
06.04.2016 08:20 6,5 C 6,4 C 86 % 1014,6 hPa 0,0 mm 1,8 km/h (1 Bft) W 270 0 min 4,3 C 0,0 km/h (0 Bft)
06.04.2016 08:25 6,5 C 6,4 C 82 % 1014,6 hPa 0,0 mm 1,8 km/h (1 Bft) W-SW 247 0 min 3,7 C 0,0 km/h (0 Bft)
06.04.2016 08:30 6,5 C 6,5 C 82 % 1014,8 hPa 0,0 mm 3,0 km/h (1 Bft) W 270 0 min 3,7 C 3,6 km/h (1 Bft)
06.04.2016 08:35 6,5 C 6,4 C 82 % 1014,8 hPa 0,0 mm 5,4 km/h (1 Bft) S 180 0 min 3,7 C 5,4 km/h (1 Bft)
06.04.2016 08:40 6,6 C 6,4 C 86 % 1014,8 hPa 0,0 mm 4,5 km/h (1 Bft) SW 225 0 min 4,4 C 3,3 km/h (1 Bft)
06.04.2016 08:45 6,6 C 6,5 C 82 % 1014,8 hPa 0,0 mm 1,8 km/h (1 Bft) W 270 0 min 3,8 C 0,0 km/h (0 Bft)
06.04.2016 08:50 6,6 C 6,5 C 82 % 1014,8 hPa 0,0 mm 2,7 km/h (1 Bft) W-NW 292 0 min 3,8 C 6,0 km/h (2 Bft)
06.04.2016 08:55 6,6 C 6,6 C 82 % 1014,8 hPa 0,0 mm 3,3 km/h (1 Bft) W 270 0 min 3,8 C 0,0 km/h (0 Bft)
06.04.2016 09:00 6,7 C 6,6 C 86 % 1014,8 hPa 0,0 mm 3,3 km/h (1 Bft) W 270 0 min 4,5 C 0,0 km/h (0 Bft)
06.04.2016 09:05 6,7 C 6,7 C 82 % 1014,8 hPa 0,0 mm 3,3 km/h (1 Bft) W 270 0 min 3,8 C 5,7 km/h (1 Bft)
06.04.2016 09:10 6,7 C 6,7 C 82 % 1015,0 hPa 0,0 mm 3,6 km/h (1 Bft) NW 315 0 min 3,8 C 8,0 km/h (2 Bft)
06.04.2016 09:15 6,7 C 6,6 C 86 % 1015,0 hPa 0,0 mm 5,7 km/h (1 Bft) NW 315 0 min 4,5 C 11,6 km/h (2 Bft)
06.04.2016 09:20 6,6 C 6,5 C 82 % 1015,0 hPa 0,7 mm 6,3 km/h (2 Bft) S-SO 157 0 min 3,8 C 7,5 km/h (2 Bft)
06.04.2016 09:25 6,6 C 6,6 C 82 % 1015,0 hPa 0,0 mm 4,5 km/h (1 Bft) W 270 0 min 3,8 C 4,8 km/h (1 Bft)
06.04.2016 09:30 6,6 C 6,6 C 82 % 1015,2 hPa 0,0 mm 4,2 km/h (1 Bft) SW 225 0 min 3,8 C 4,5 km/h (1 Bft)
06.04.2016 09:35 6,7 C 6,7 C 82 % 1015,2 hPa 0,0 mm 4,8 km/h (1 Bft) O-SO 112 0 min 3,8 C 7,5 km/h (2 Bft)
06.04.2016 09:38 6,7 C 6,7 C 82 % 1015,2 hPa 0,0 mm 4,8 km/h (1 Bft) O-SO 112 0 min 3,8 C 7,5 km/h (2 Bft)
06.04.2016 09:40 6,7 C 6,7 C 82 % 1015,2 hPa 0,0 mm 5,1 km/h (1 Bft) W 270 0 min 3,8 C 6,9 km/h (2 Bft)
06.04.2016 09:45 6,7 C 6,7 C 82 % 1015,2 hPa 0,0 mm 6,3 km/h (2 Bft) W 270 0 min 3,8 C 8,6 km/h (2 Bft)
06.04.2016 09:50 6,7 C 6,7 C 82 % 1015,4 hPa 0,0 mm 7,2 km/h (2 Bft) S-SW 202 0 min 3,8 C 9,8 km/h (2 Bft)
06.04.2016 09:55 6,7 C 6,6 C 82 % 1015,4 hPa 0,0 mm 7,7 km/h (2 Bft) W-SW 247 0 min 3,8 C 8,3 km/h (2 Bft)
06.04.2016 10:00 6,7 C 6,6 C 82 % 1015,4 hPa 0,0 mm 7,5 km/h (2 Bft) W 270 0 min 3,8 C 12,2 km/h (2 Bft)
06.04.2016 10:05 6,7 C 6,6 C 82 % 1015,4 hPa 0,0 mm 8,0 km/h (2 Bft) W 270 0 min 3,8 C 8,9 km/h (2 Bft)
06.04.2016 10:10 6,8 C 6,7 C 82 % 1015,8 hPa 0,0 mm 7,7 km/h (2 Bft) W-NW 292 0 min 3,9 C 8,6 km/h (2 Bft)
06.04.2016 10:15 6,9 C 6,9 C 82 % 1015,8 hPa 0,0 mm 7,5 km/h (2 Bft) W 270 0 min 4,0 C 4,8 km/h (1 Bft)
06.04.2016 10:20 6,9 C 6,9 C 82 % 1015,8 hPa 0,0 mm 8,3 km/h (2 Bft) S-SO 157 0 min 4,0 C 10,7 km/h (2 Bft)
06.04.2016 10:25 7,0 C 7,2 C 82 % 1015,8 hPa 0,0 mm 6,6 km/h (2 Bft) SW 225 0 min 4,1 C 3,9 km/h (1 Bft)
06.04.2016 10:30 7,1 C 7,4 C 82 % 1015,7 hPa 0,0 mm 5,4 km/h (1 Bft) W 270 0 min 4,2 C 8,3 km/h (2 Bft)
06.04.2016 10:35 7,2 C 7,7 C 82 % 1015,7 hPa 0,0 mm 4,5 km/h (1 Bft) W-SW 247 0 min 4,3 C 7,5 km/h (2 Bft)
06.04.2016 10:40 7,3 C 7,7 C 82 % 1015,7 hPa 0,7 mm 5,4 km/h (1 Bft) W 270 0 min 4,4 C 6,0 km/h (2 Bft)
06.04.2016 10:45 7,5 C 8,1 C 82 % 1015,7 hPa 0,0 mm 5,7 km/h (1 Bft) W 270 0 min 4,6 C 7,7 km/h (2 Bft)
06.04.2016 10:50 7,7 C 8,3 C 82 % 1015,9 hPa 0,0 mm 6,0 km/h (2 Bft) W-SW 247 0 min 4,8 C 10,7 km/h (2 Bft)
06.04.2016 10:55 7,8 C 8,3 C 82 % 1015,9 hPa 0,0 mm 7,7 km/h (2 Bft) W 270 0 min 4,9 C 13,7 km/h (3 Bft)
06.04.2016 11:00 7,9 C 8,4 C 82 % 1015,9 hPa 0,0 mm 8,3 km/h (2 Bft) W-NW 292 0 min 5,0 C 14,9 km/h (3 Bft)
06.04.2016 11:05 7,9 C 8,3 C 81 % 1015,9 hPa 0,0 mm 9,2 km/h (2 Bft) W-NW 292 0 min 4,8 C 25,3 km/h (4 Bft)
06.04.2016 11:10 7,9 C 8,1 C 81 % 1015,9 hPa 0,0 mm 9,5 km/h (2 Bft) W 270 0 min 4,8 C 11,0 km/h (2 Bft)
06.04.2016 11:15 7,9 C 8,0 C 81 % 1015,9 hPa 0,0 mm 9,2 km/h (2 Bft) W-SW 247 0 min 4,8 C 13,4 km/h (3 Bft)
06.04.2016 11:20 7,8 C 8,0 C 80 % 1015,9 hPa 0,0 mm 8,0 km/h (2 Bft) NW 315 0 min 4,6 C 10,4 km/h (2 Bft)
06.04.2016 11:25 7,8 C 8,0 C 80 % 1015,9 hPa 0,0 mm 7,7 km/h (2 Bft) N-NO 22 0 min 4,6 C 5,7 km/h (1 Bft)
06.04.2016 11:30 7,8 C 7,9 C 80 % 1015,9 hPa 0,0 mm 8,0 km/h (2 Bft) W 270 0 min 4,6 C 8,3 km/h (2 Bft)
06.04.2016 11:35 7,9 C 8,5 C 80 % 1015,9 hPa 0,0 mm 6,9 km/h (2 Bft) W 270 0 min 4,7 C 10,4 km/h (2 Bft)
06.04.2016 11:40 7,9 C 8,3 C 80 % 1015,9 hPa 0,0 mm 8,0 km/h (2 Bft) W-NW 292 0 min 4,7 C 10,1 km/h (2 Bft)
06.04.2016 11:45 8,1 C 8,6 C 80 % 1015,9 hPa 0,0 mm 8,6 km/h (2 Bft) W-SW 247 0 min 4,9 C 8,3 km/h (2 Bft)
06.04.2016 11:50 8,2 C 8,8 C 80 % 1015,9 hPa 0,0 mm 7,5 km/h (2 Bft) W 270 0 min 5,0 C 7,2 km/h (2 Bft)
06.04.2016 11:55 8,2 C 9,1 C 80 % 1015,9 hPa 0,0 mm 6,3 km/h (2 Bft) S-SW 202 0 min 5,0 C 5,4 km/h (1 Bft)
06.04.2016 12:00 8,3 C 9,4 C 80 % 1015,9 hPa 0,0 mm 5,7 km/h (1 Bft) W-SW 247 0 min 5,1 C 7,2 km/h (2 Bft)
06.04.2016 12:05 8,2 C 9,4 C 80 % 1015,9 hPa 0,0 mm 5,1 km/h (1 Bft) SW 225 0 min 5,0 C 7,5 km/h (2 Bft)
06.04.2016 12:10 8,1 C 8,8 C 79 % 1016,1 hPa 0,0 mm 7,5 km/h (2 Bft) S-SO 157 0 min 4,7 C 9,8 km/h (2 Bft)
06.04.2016 12:15 7,9 C 8,0 C 79 % 1016,1 hPa 0,0 mm 9,2 km/h (2 Bft) NW 315 0 min 4,5 C 11,3 km/h (2 Bft)
06.04.2016 12:20 7,9 C 8,2 C 79 % 1016,1 hPa 0,0 mm 7,7 km/h (2 Bft) W-SW 247 0 min 4,5 C 11,3 km/h (2 Bft)
06.04.2016 12:25 7,8 C 8,2 C 79 % 1016,1 hPa 0,0 mm 5,7 km/h (1 Bft) NW 315 0 min 4,4 C 4,2 km/h (1 Bft)
06.04.2016 12:30 7,8 C 8,3 C 79 % 1015,9 hPa 0,0 mm 6,3 km/h (2 Bft) W 270 0 min 4,4 C 16,4 km/h (3 Bft)
06.04.2016 12:35 7,8 C 8,6 C 79 % 1015,9 hPa 0,0 mm 6,9 km/h (2 Bft) SW 225 0 min 4,4 C 7,5 km/h (2 Bft)
06.04.2016 12:38 8,0 C 9,0 C 79 % 1015,9 hPa 0,0 mm 6,3 km/h (2 Bft) W-SW 247 0 min 4,6 C 4,2 km/h (1 Bft)
06.04.2016 12:39 8,0 C 9,0 C 79 % 1015,9 hPa 0,0 mm 6,3 km/h (2 Bft) W-SW 247 0 min 4,6 C 4,2 km/h (1 Bft)
06.04.2016 12:40 8,0 C 9,0 C 79 % 1015,9 hPa 0,0 mm 6,3 km/h (2 Bft) W-SW 247 0 min 4,6 C 4,2 km/h (1 Bft)
06.04.2016 12:45 8,2 C 9,6 C 79 % 1015,9 hPa 0,0 mm 4,2 km/h (1 Bft) W 270 0 min 4,8 C 7,7 km/h (2 Bft)
06.04.2016 12:50 8,4 C 9,9 C 79 % 1015,9 hPa 0,0 mm 4,8 km/h (1 Bft) W-SW 247 0 min 5,0 C 7,7 km/h (2 Bft)
06.04.2016 12:55 8,4 C 10,1 C 79 % 1015,9 hPa 0,0 mm 6,6 km/h (2 Bft) W 270 0 min 5,0 C 6,9 km/h (2 Bft)
06.04.2016 13:00 8,5 C 10,4 C 78 % 1015,9 hPa 0,0 mm 6,0 km/h (2 Bft) NW 315 0 min 4,9 C 6,9 km/h (2 Bft)
06.04.2016 13:05 8,6 C 10,4 C 78 % 1015,9 hPa 0,0 mm 5,4 km/h (1 Bft) SW 225 0 min 5,0 C 4,8 km/h (1 Bft)
06.04.2016 13:10 8,6 C 10,3 C 78 % 1015,8 hPa 0,0 mm 6,3 km/h (2 Bft) W-SW 247 0 min 5,0 C 9,8 km/h (2 Bft)
06.04.2016 13:15 8,7 C 10,4 C 78 % 1015,8 hPa 0,0 mm 5,7 km/h (1 Bft) W 270 0 min 5,1 C 13,1 km/h (3 Bft)
06.04.2016 13:20 8,7 C 10,2 C 78 % 1015,8 hPa 0,0 mm 6,3 km/h (2 Bft) W 270 0 min 5,1 C 14,6 km/h (3 Bft)
06.04.2016 13:25 8,6 C 9,8 C 77 % 1015,8 hPa 0,0 mm 7,5 km/h (2 Bft) W-SW 247 0 min 4,8 C 5,4 km/h (1 Bft)
06.04.2016 13:30 8,5 C 9,5 C 77 % 1015,6 hPa 0,0 mm 8,0 km/h (2 Bft) W-SW 247 0 min 4,7 C 8,3 km/h (2 Bft)
06.04.2016 13:35 8,5 C 9,7 C 77 % 1015,6 hPa 0,0 mm 6,0 km/h (2 Bft) W-NW 292 0 min 4,7 C 6,9 km/h (2 Bft)
06.04.2016 13:40 8,6 C 9,9 C 76 % 1015,6 hPa 0,0 mm 5,1 km/h (1 Bft) SW 225 0 min 4,6 C 9,2 km/h (2 Bft)
06.04.2016 13:45 8,7 C 9,8 C 76 % 1015,6 hPa 0,0 mm 4,5 km/h (1 Bft) SW 225 0 min 4,7 C 6,9 km/h (2 Bft)
06.04.2016 13:50 8,7 C 9,9 C 76 % 1015,6 hPa 0,0 mm 4,2 km/h (1 Bft) W 270 0 min 4,7 C 3,9 km/h (1 Bft)
06.04.2016 13:55 8,7 C 9,7 C 76 % 1015,6 hPa 0,0 mm 3,6 km/h (1 Bft) W 270 0 min 4,7 C 11,0 km/h (2 Bft)
06.04.2016 14:00 8,6 C 9,3 C 76 % 1015,6 hPa 0,0 mm 3,3 km/h (1 Bft) S 180 0 min 4,6 C 5,4 km/h (1 Bft)
06.04.2016 14:05 8,4 C 8,7 C 76 % 1015,6 hPa 0,0 mm 3,6 km/h (1 Bft) W-SW 247 0 min 4,4 C 0,0 km/h (0 Bft)
06.04.2016 14:10 8,4 C 8,5 C 76 % 1015,6 hPa 0,0 mm 3,9 km/h (1 Bft) W-SW 247 0 min 4,4 C 8,0 km/h (2 Bft)
06.04.2016 14:15 8,3 C 8,3 C 76 % 1015,6 hPa 0,0 mm 3,3 km/h (1 Bft) S-SO 157 0 min 4,3 C 3,6 km/h (1 Bft)
06.04.2016 14:20 8,2 C 8,4 C 76 % 1015,6 hPa 0,0 mm 2,7 km/h (1 Bft) W 270 0 min 4,2 C 6,3 km/h (2 Bft)
06.04.2016 14:25 8,4 C 8,7 C 76 % 1015,6 hPa 0,0 mm 2,7 km/h (1 Bft) W 270 0 min 4,4 C 6,9 km/h (2 Bft)
06.04.2016 14:30 8,4 C 8,7 C 76 % 1015,2 hPa 0,0 mm 3,0 km/h (1 Bft) SW 225 0 min 4,4 C 0,0 km/h (0 Bft)
06.04.2016 14:35 8,4 C 8,5 C 76 % 1015,2 hPa 0,0 mm 2,1 km/h (1 Bft) W 270 0 min 4,4 C 0,0 km/h (0 Bft)
06.04.2016 14:40 8,3 C 8,5 C 76 % 1015,2 hPa 0,0 mm 1,2 km/h (1 Bft) S-SW 202 0 min 4,3 C 3,0 km/h (1 Bft)
06.04.2016 14:45 8,3 C 8,3 C 76 % 1015,2 hPa 0,0 mm 0,3 km/h (0 Bft) O 90 0 min 4,3 C 0,0 km/h (0 Bft)
06.04.2016 14:50 8,4 C 8,5 C 76 % 1014,9 hPa 0,7 mm 0,3 km/h (0 Bft) O-NO 67 0 min 4,4 C 0,0 km/h (0 Bft)
06.04.2016 14:55 8,5 C 8,8 C 77 % 1014,9 hPa 0,0 mm 0,0 km/h (0 Bft) O 90 0 min 4,7 C 0,0 km/h (0 Bft)
06.04.2016 15:00 8,5 C 8,8 C 77 % 1014,9 hPa 0,0 mm 0,0 km/h (0 Bft) NO 45 0 min 4,7 C 0,0 km/h (0 Bft)
06.04.2016 15:05 8,6 C 8,9 C 77 % 1014,9 hPa 0,0 mm 0,0 km/h (0 Bft) O-NO 67 0 min 4,8 C 0,0 km/h (0 Bft)
06.04.2016 15:10 8,8 C 9,2 C 77 % 1014,9 hPa 0,0 mm 0,0 km/h (0 Bft) W-NW 292 0 min 5,0 C 0,0 km/h (0 Bft)
06.04.2016 15:15 9,0 C 9,5 C 77 % 1014,9 hPa 0,0 mm 0,6 km/h (0 Bft) SW 225 0 min 5,2 C 3,3 km/h (1 Bft)
06.04.2016 15:20 9,1 C 9,8 C 77 % 1014,9 hPa 0,0 mm 1,2 km/h (1 Bft) W-NW 292 0 min 5,3 C 3,6 km/h (1 Bft)
06.04.2016 15:25 9,3 C 10,4 C 77 % 1014,9 hPa 0,0 mm 2,4 km/h (1 Bft) W 270 0 min 5,5 C 3,6 km/h (1 Bft)
06.04.2016 15:30 9,4 C 11,0 C 76 % 1014,8 hPa 0,0 mm 3,0 km/h (1 Bft) S-SW 202 0 min 5,4 C 0,0 km/h (0 Bft)
06.04.2016 15:35 9,6 C 11,7 C 76 % 1014,8 hPa 0,0 mm 3,3 km/h (1 Bft) W 270 0 min 5,6 C 4,5 km/h (1 Bft)
06.04.2016 15:38 9,9 C 12,2 C 76 % 1014,8 hPa 0,0 mm 3,6 km/h (1 Bft) W 270 0 min 5,9 C 9,8 km/h (2 Bft)
06.04.2016 15:40 9,9 C 12,2 C 76 % 1014,8 hPa 0,0 mm 3,6 km/h (1 Bft) W 270 0 min 5,9 C 9,8 km/h (2 Bft)
06.04.2016 15:45 10,1 C 12,6 C 75 % 1014,8 hPa 0,0 mm 3,9 km/h (1 Bft) W 270 0 min 5,9 C 8,9 km/h (2 Bft)
06.04.2016 15:50 10,2 C 12,9 C 74 % 1014,5 hPa 0,0 mm 3,6 km/h (1 Bft) NW 315 0 min 5,8 C 0,0 km/h (0 Bft)
06.04.2016 15:55 10,8 C 14,3 C 74 % 1014,5 hPa 0,0 mm 4,5 km/h (1 Bft) W 270 5 min 6,4 C 9,2 km/h (2 Bft)
06.04.2016 16:00 10,8 C 14,6 C 73 % 1014,5 hPa 0,0 mm 4,8 km/h (1 Bft) S-SW 202 5 min 6,2 C 0,0 km/h (0 Bft)
06.04.2016 16:05 10,5 C 13,9 C 72 % 1014,5 hPa 0,0 mm 3,6 km/h (1 Bft) S 180 5 min 5,7 C 0,0 km/h (0 Bft)
06.04.2016 16:10 10,5 C 14,0 C 71 % 1014,5 hPa 0,0 mm 2,4 km/h (1 Bft) N-NO 22 5 min 5,5 C 3,3 km/h (1 Bft)
06.04.2016 16:15 10,9 C 15,7 C 71 % 1014,5 hPa 0,0 mm 3,3 km/h (1 Bft) S-SO 157 5 min 5,9 C 8,9 km/h (2 Bft)
06.04.2016 16:20 10,8 C 15,4 C 70 % 1014,5 hPa 0,0 mm 3,0 km/h (1 Bft) N-NO 22 5 min 5,6 C 3,0 km/h (1 Bft)
06.04.2016 16:25 11,0 C 15,4 C 70 % 1014,5 hPa 0,0 mm 4,5 km/h (1 Bft) W-SW 247 5 min 5,7 C 13,4 km/h (3 Bft)
06.04.2016 16:30 11,1 C 15,1 C 69 % 1014,3 hPa 0,0 mm 7,7 km/h (2 Bft) W 270 5 min 5,6 C 10,1 km/h (2 Bft)
06.04.2016 16:35 11,1 C 14,5 C 68 % 1014,3 hPa 0,0 mm 9,2 km/h (2 Bft) W-SW 247 5 min 5,4 C 12,8 km/h (3 Bft)
06.04.2016 16:40 11,0 C 14,0 C 68 % 1014,3 hPa 0,0 mm 7,2 km/h (2 Bft) W-SW 247 5 min 5,3 C 5,7 km/h (1 Bft)
06.04.2016 16:45 11,0 C 13,7 C 68 % 1014,3 hPa 0,0 mm 5,7 km/h (1 Bft) W 270 0 min 5,3 C 6,9 km/h (2 Bft)
06.04.2016 16:50 10,9 C 13,1 C 68 % 1014,1 hPa 0,0 mm 6,9 km/h (2 Bft) N-NO 22 0 min 5,2 C 9,8 km/h (2 Bft)
06.04.2016 16:55 10,8 C 12,6 C 68 % 1014,1 hPa 0,0 mm 7,7 km/h (2 Bft) W 270 0 min 5,1 C 7,7 km/h (2 Bft)
06.04.2016 17:00 10,8 C 12,4 C 68 % 1014,1 hPa 0,0 mm 5,4 km/h (1 Bft) S 180 0 min 5,1 C 4,2 km/h (1 Bft)
06.04.2016 17:05 10,8 C 12,4 C 67 % 1014,1 hPa 0,0 mm 5,7 km/h (1 Bft) N-NW 337 0 min 4,9 C 9,2 km/h (2 Bft)
06.04.2016 17:10 10,8 C 12,2 C 67 % 1013,9 hPa 0,0 mm 7,2 km/h (2 Bft) W-SW 247 0 min 4,9 C 8,9 km/h (2 Bft)
06.04.2016 17:15 10,8 C 12,1 C 67 % 1013,9 hPa 0,0 mm 6,3 km/h (2 Bft) NW 315 0 min 4,9 C 11,0 km/h (2 Bft)
06.04.2016 17:20 10,7 C 12,0 C 67 % 1013,9 hPa 0,0 mm 6,0 km/h (2 Bft) NW 315 0 min 4,8 C 8,3 km/h (2 Bft)
06.04.2016 17:25 10,7 C 11,6 C 67 % 1013,9 hPa 0,0 mm 6,0 km/h (2 Bft) W-SW 247 0 min 4,8 C 3,9 km/h (1 Bft)
06.04.2016 17:30 10,6 C 11,6 C 67 % 1014,1 hPa 0,0 mm 5,1 km/h (1 Bft) S 180 0 min 4,7 C 8,9 km/h (2 Bft)
06.04.2016 17:35 10,5 C 11,4 C 68 % 1014,1 hPa 0,0 mm 4,5 km/h (1 Bft) W-SW 247 0 min 4,8 C 6,3 km/h (2 Bft)
06.04.2016 17:40 10,5 C 11,5 C 68 % 1014,1 hPa 0,0 mm 4,5 km/h (1 Bft) NW 315 0 min 4,8 C 0,0 km/h (0 Bft)
06.04.2016 17:45 10,7 C 12,2 C 68 % 1014,1 hPa 0,0 mm 4,8 km/h (1 Bft) W-SW 247 0 min 5,0 C 3,9 km/h (1 Bft)
06.04.2016 17:50 10,8 C 12,4 C 68 % 1013,8 hPa 0,0 mm 5,1 km/h (1 Bft) NW 315 0 min 5,1 C 5,1 km/h (1 Bft)
06.04.2016 17:55 10,7 C 12,0 C 68 % 1013,8 hPa 0,0 mm 4,8 km/h (1 Bft) W-SW 247 0 min 5,0 C 0,0 km/h (0 Bft)
06.04.2016 18:00 10,6 C 11,7 C 68 % 1013,8 hPa 0,0 mm 3,3 km/h (1 Bft) W-SW 247 0 min 4,9 C 0,0 km/h (0 Bft)
06.04.2016 18:05 10,4 C 11,2 C 68 % 1013,8 hPa 0,0 mm 0,9 km/h (0 Bft) W 270 0 min 4,8 C 5,1 km/h (1 Bft)
06.04.2016 18:10 10,4 C 11,1 C 68 % 1013,6 hPa 0,0 mm 1,8 km/h (1 Bft) W-SW 247 0 min 4,8 C 6,9 km/h (2 Bft)
06.04.2016 18:15 10,4 C 11,3 C 68 % 1013,6 hPa 0,0 mm 3,9 km/h (1 Bft) W-SW 247 0 min 4,8 C 4,5 km/h (1 Bft)
06.04.2016 18:20 10,5 C 11,5 C 68 % 1013,6 hPa 0,0 mm 3,0 km/h (1 Bft) SW 225 0 min 4,8 C 3,9 km/h (1 Bft)
06.04.2016 18:25 10,5 C 11,5 C 69 % 1013,6 hPa 0,0 mm 2,4 km/h (1 Bft) W-SW 247 0 min 5,1 C 5,7 km/h (1 Bft)
06.04.2016 18:30 10,4 C 11,4 C 69 % 1013,4 hPa 0,0 mm 2,4 km/h (1 Bft) W 270 0 min 5,0 C 0,0 km/h (0 Bft)
06.04.2016 18:35 10,4 C 11,3 C 69 % 1013,4 hPa 0,0 mm 1,8 km/h (1 Bft) SW 225 0 min 5,0 C 7,5 km/h (2 Bft)
06.04.2016 18:38 10,3 C 11,1 C 69 % 1013,4 hPa 0,0 mm 2,7 km/h (1 Bft) W-SW 247 0 min 4,9 C 5,4 km/h (1 Bft)
06.04.2016 18:41 10,3 C 11,1 C 69 % 1013,4 hPa 0,0 mm 2,7 km/h (1 Bft) W-SW 247 0 min 4,9 C 5,4 km/h (1 Bft)
06.04.2016 18:45 10,3 C 10,9 C 69 % 1013,4 hPa 0,0 mm 3,0 km/h (1 Bft) W-SW 247 0 min 4,9 C 0,0 km/h (0 Bft)
06.04.2016 18:50 10,3 C 10,8 C 69 % 1013,2 hPa 0,0 mm 1,5 km/h (1 Bft) W-SW 247 0 min 4,9 C 0,0 km/h (0 Bft)
06.04.2016 18:55 10,1 C 10,6 C 69 % 1013,2 hPa 0,0 mm 1,2 km/h (1 Bft) SO 135 0 min 4,7 C 0,0 km/h (0 Bft)
06.04.2016 19:00 10,1 C 10,5 C 70 % 1013,2 hPa 0,0 mm 1,5 km/h (1 Bft) W-SW 247 0 min 4,9 C 6,6 km/h (2 Bft)
06.04.2016 19:05 10,0 C 10,3 C 70 % 1013,2 hPa 0,0 mm 0,9 km/h (0 Bft) O-SO 112 0 min 4,8 C 0,0 km/h (0 Bft)
06.04.2016 19:10 10,0 C 10,3 C 71 % 1012,9 hPa 0,0 mm 0,9 km/h (0 Bft) W-SW 247 0 min 5,0 C 0,0 km/h (0 Bft)
06.04.2016 19:15 9,9 C 10,1 C 71 % 1012,9 hPa 0,0 mm 0,0 km/h (0 Bft) O-NO 67 0 min 4,9 C 0,0 km/h (0 Bft)
06.04.2016 19:20 9,9 C 10,0 C 72 % 1012,9 hPa 0,0 mm 0,0 km/h (0 Bft) NO 45 0 min 5,1 C 0,0 km/h (0 Bft)
06.04.2016 19:25 9,8 C 9,9 C 72 % 1012,9 hPa 0,0 mm 0,0 km/h (0 Bft) O-NO 67 0 min 5,0 C 0,0 km/h (0 Bft)
06.04.2016 19:30 9,7 C 9,8 C 72 % 1012,8 hPa 0,0 mm 0,0 km/h (0 Bft) N-NO 22 0 min 4,9 C 0,0 km/h (0 Bft)
06.04.2016 19:35 9,5 C 9,6 C 73 % 1012,8 hPa 0,0 mm 0,0 km/h (0 Bft) O 90 0 min 4,9 C 0,0 km/h (0 Bft)
06.04.2016 19:40 9,4 C 9,4 C 73 % 1012,8 hPa 0,0 mm 0,0 km/h (0 Bft) SO 135 0 min 4,8 C 0,0 km/h (0 Bft)
06.04.2016 19:45 9,2 C 9,2 C 73 % 1012,8 hPa 0,0 mm 0,0 km/h (0 Bft) O-SO 112 0 min 4,6 C 0,0 km/h (0 Bft)
06.04.2016 19:50 9,1 C 9,0 C 74 % 1012,5 hPa 0,0 mm 0,0 km/h (0 Bft) O 90 0 min 4,7 C 0,0 km/h (0 Bft)
06.04.2016 19:55 8,9 C 8,8 C 75 % 1012,5 hPa 0,0 mm 0,0 km/h (0 Bft) O-NO 67 0 min 4,7 C 0,0 km/h (0 Bft)
06.04.2016 20:00 8,8 C 8,7 C 76 % 1012,5 hPa 0,0 mm 0,0 km/h (0 Bft) O-NO 67 0 min 4,8 C 0,0 km/h (0 Bft)
06.04.2016 20:05 8,6 C 8,5 C 77 % 1012,5 hPa 0,0 mm 0,0 km/h (0 Bft) O 90 0 min 4,8 C 0,0 km/h (0 Bft)
06.04.2016 20:10 8,4 C 8,3 C 77 % 1012,4 hPa 0,0 mm 0,0 km/h (0 Bft) NW 315 0 min 4,6 C 0,0 km/h (0 Bft)
06.04.2016 20:15 8,4 C 8,2 C 78 % 1012,4 hPa 0,0 mm 0,0 km/h (0 Bft) O-NO 67 0 min 4,8 C 0,0 km/h (0 Bft)
06.04.2016 20:20 8,3 C 8,1 C 78 % 1012,4 hPa 0,0 mm 0,0 km/h (0 Bft) NO 45 0 min 4,7 C 0,0 km/h (0 Bft)
06.04.2016 20:25 8,2 C 8,1 C 78 % 1012,4 hPa 0,0 mm 0,0 km/h (0 Bft) O-NO 67 0 min 4,6 C 0,0 km/h (0 Bft)
06.04.2016 20:30 8,3 C 8,1 C 78 % 1012,5 hPa 0,0 mm 0,0 km/h (0 Bft) O-NO 67 0 min 4,7 C 0,0 km/h (0 Bft)
06.04.2016 20:35 8,2 C 8,1 C 78 % 1012,5 hPa 0,0 mm 0,0 km/h (0 Bft) O 90 0 min 4,6 C 0,0 km/h (0 Bft)
06.04.2016 20:40 8,2 C 8,1 C 78 % 1012,5 hPa 0,0 mm 0,0 km/h (0 Bft) O 90 0 min 4,6 C 0,0 km/h (0 Bft)
06.04.2016 20:45 8,1 C 8,1 C 77 % 1012,5 hPa 0,0 mm 0,0 km/h (0 Bft) O-NO 67 0 min 4,3 C 0,0 km/h (0 Bft)
06.04.2016 20:50 8,1 C 8,0 C 77 % 1012,4 hPa 0,0 mm 0,0 km/h (0 Bft) O-NO 67 0 min 4,3 C 0,0 km/h (0 Bft)
06.04.2016 20:55 8,1 C 8,0 C 79 % 1012,4 hPa 0,0 mm 0,0 km/h (0 Bft) O-SO 112 0 min 4,7 C 0,0 km/h (0 Bft)
06.04.2016 21:00 8,1 C 8,0 C 77 % 1012,4 hPa 0,0 mm 0,0 km/h (0 Bft) O-SO 112 0 min 4,3 C 0,0 km/h (0 Bft)
06.04.2016 21:05 8,0 C 7,8 C 79 % 1012,4 hPa 0,0 mm 0,0 km/h (0 Bft) NO 45 0 min 4,6 C 0,0 km/h (0 Bft)
06.04.2016 21:10 8,0 C 7,8 C 79 % 1012,6 hPa 0,0 mm 0,0 km/h (0 Bft) N-NO 22 0 min 4,6 C 0,0 km/h (0 Bft)
06.04.2016 21:15 7,8 C 7,6 C 79 % 1012,6 hPa 0,0 mm 0,0 km/h (0 Bft) O-NO 67 0 min 4,4 C 0,0 km/h (0 Bft)
06.04.2016 21:20 7,7 C 7,5 C 79 % 1012,6 hPa 0,0 mm 0,0 km/h (0 Bft) O-NO 67 0 min 4,3 C 0,0 km/h (0 Bft)
06.04.2016 21:25 7,2 C 7,0 C 79 % 1012,6 hPa 0,0 mm 0,0 km/h (0 Bft) SO 135 0 min 3,8 C 0,0 km/h (0 Bft)
06.04.2016 21:30 7,1 C 6,8 C 79 % 1012,6 hPa 0,0 mm 0,0 km/h (0 Bft) NO 45 0 min 3,7 C 0,0 km/h (0 Bft)
06.04.2016 21:35 6,8 C 6,4 C 80 % 1012,6 hPa 0,0 mm 0,3 km/h (0 Bft) NW 315 0 min 3,6 C 0,0 km/h (0 Bft)
06.04.2016 21:40 6,8 C 6,4 C 80 % 1012,6 hPa 0,0 mm 0,3 km/h (0 Bft) O-NO 67 0 min 3,6 C 0,0 km/h (0 Bft)
06.04.2016 21:42 6,8 C 6,4 C 80 % 1012,6 hPa 0,0 mm 0,3 km/h (0 Bft) O-NO 67 0 min 3,6 C 0,0 km/h (0 Bft)
06.04.2016 21:45 6,6 C 6,2 C 80 % 1012,6 hPa 0,0 mm 0,0 km/h (0 Bft) NW 315 0 min 3,4 C 0,0 km/h (0 Bft)
06.04.2016 21:50 6,4 C 6,0 C 80 % 1012,7 hPa 0,0 mm 0,0 km/h (0 Bft) NO 45 0 min 3,2 C 0,0 km/h (0 Bft)
06.04.2016 21:55 6,5 C 6,0 C 81 % 1012,7 hPa 0,0 mm 0,0 km/h (0 Bft) O-NO 67 0 min 3,5 C 0,0 km/h (0 Bft)
06.04.2016 22:00 6,4 C 5,9 C 81 % 1012,7 hPa 0,0 mm 0,0 km/h (0 Bft) O-SO 112 0 min 3,4 C 0,0 km/h (0 Bft)
06.04.2016 22:05 6,4 C 5,8 C 82 % 1012,7 hPa 0,0 mm 0,0 km/h (0 Bft) O 90 0 min 3,6 C 0,0 km/h (0 Bft)
06.04.2016 22:10 6,4 C 5,8 C 83 % 1012,8 hPa 0,0 mm 0,0 km/h (0 Bft) SO 135 0 min 3,7 C 0,0 km/h (0 Bft)
06.04.2016 22:15 6,0 C 5,5 C 82 % 1012,8 hPa 0,0 mm 0,0 km/h (0 Bft) O-NO 67 0 min 3,2 C 0,0 km/h (0 Bft)
06.04.2016 22:20 5,9 C 5,4 C 83 % 1012,8 hPa 0,0 mm 0,0 km/h (0 Bft) O-NO 67 0 min 3,2 C 0,0 km/h (0 Bft)
06.04.2016 22:25 5,6 C 5,2 C 83 % 1012,8 hPa 0,0 mm 0,0 km/h (0 Bft) SO 135 0 min 2,9 C 0,0 km/h (0 Bft)
06.04.2016 22:30 5,7 C 5,2 C 83 % 1012,8 hPa 0,0 mm 0,0 km/h (0 Bft) SO 135 0 min 3,0 C 0,0 km/h (0 Bft)
06.04.2016 22:35 5,8 C 5,3 C 84 % 1012,8 hPa 0,0 mm 0,0 km/h (0 Bft) O-NO 67 0 min 3,3 C 0,0 km/h (0 Bft)
06.04.2016 22:40 5,6 C 5,1 C 84 % 1012,8 hPa 0,0 mm 0,0 km/h (0 Bft) NO 45 0 min 3,1 C 0,0 km/h (0 Bft)
06.04.2016 22:45 5,9 C 5,3 C 85 % 1012,8 hPa 0,0 mm 0,0 km/h (0 Bft) SO 135 0 min 3,6 C 0,0 km/h (0 Bft)
06.04.2016 22:50 6,0 C 5,4 C 84 % 1012,5 hPa 0,0 mm 0,0 km/h (0 Bft) O-SO 112 0 min 3,5 C 0,0 km/h (0 Bft)
06.04.2016 22:55 6,1 C 5,5 C 85 % 1012,5 hPa 0,0 mm 0,0 km/h (0 Bft) O-SO 112 0 min 3,8 C 0,0 km/h (0 Bft)
06.04.2016 23:00 6,0 C 5,5 C 85 % 1012,5 hPa 0,0 mm 0,0 km/h (0 Bft) S-SO 157 0 min 3,7 C 0,0 km/h (0 Bft)
06.04.2016 23:05 5,9 C 5,4 C 86 % 1012,5 hPa 0,0 mm 0,0 km/h (0 Bft) SO 135 0 min 3,7 C 0,0 km/h (0 Bft)
06.04.2016 23:10 5,9 C 5,4 C 86 % 1012,6 hPa 0,0 mm 0,0 km/h (0 Bft) SO 135 0 min 3,7 C 0,0 km/h (0 Bft)
06.04.2016 23:15 5,7 C 5,3 C 86 % 1012,6 hPa 0,0 mm 0,0 km/h (0 Bft) NO 45 0 min 3,5 C 0,0 km/h (0 Bft)
06.04.2016 23:20 5,3 C 4,9 C 85 % 1012,6 hPa 0,0 mm 0,0 km/h (0 Bft) N-NO 22 0 min 3,0 C 0,0 km/h (0 Bft)
06.04.2016 23:25 5,0 C 4,7 C 85 % 1012,6 hPa 0,0 mm 0,0 km/h (0 Bft) O-SO 112 0 min 2,7 C 0,0 km/h (0 Bft)
06.04.2016 23:30 5,0 C 4,6 C 85 % 1012,7 hPa 0,0 mm 0,0 km/h (0 Bft) NO 45 0 min 2,7 C 0,0 km/h (0 Bft)
06.04.2016 23:35 4,8 C 4,5 C 85 % 1012,7 hPa 0,0 mm 0,0 km/h (0 Bft) NO 45 0 min 2,5 C 0,0 km/h (0 Bft)
06.04.2016 23:40 4,4 C 4,1 C 85 % 1012,7 hPa 0,0 mm 0,0 km/h (0 Bft) NO 45 0 min 2,1 C 0,0 km/h (0 Bft)
06.04.2016 23:45 4,7 C 4,3 C 85 % 1012,7 hPa 0,0 mm 0,0 km/h (0 Bft) NO 45 0 min 2,4 C 0,0 km/h (0 Bft)
06.04.2016 23:50 4,4 C 4,0 C 85 % 1012,6 hPa 0,0 mm 0,0 km/h (0 Bft) NW 315 0 min 2,1 C 0,0 km/h (0 Bft)
06.04.2016 23:55 4,2 C 3,8 C 85 % 1012,6 hPa 0,0 mm 0,0 km/h (0 Bft) N-NO 22 0 min 1,9 C 0,0 km/h (0 Bft)
_ Min-Zeit 23:55 23:55 17:30 21:05 - 23:55 - - - 23:55 23:55
Minimum _ 4,2 C 3,8 C 67 % 1012,4 hPa - 0,0 km/h (0 Bft) - - - 1,9 C 0,0 km/h (0 Bft)
_ Max-Zeit 16:35 16:15 06:05 12:25 14:50 03:55 - - 16:40 15:55 11:05
Maximum _ 11,1 C 15,7 C 87 % 1016,1 hPa 0,7 mm 14,0 km/h
W-NW (3 Bft)
- - 5 min 6,4 C 25,3 km/h
W-NW (4 Bft)
Durchschnitt _ 8,1 C 8,4 C 79 % 1014,0 hPa #4,1 mm 4,1 km/h (1 Bft) W - #50 min. 4,7 C 5,5 km/h (1 Bft)